{"data":{"norad_id":55336,"epoch":"2026-09-20T11:37:07.820256Z","epoch_age_seconds":98012,"freshness":"FRESH","line1":"1 55336U 23013F   26263.48411829 -.00000134  00000+0  46418-5 0  9993","line2":"2 55336  43.0025 268.6012 0001312 253.4821 106.5887 15.27574494201630","mean_motion":15.27574494,"eccentricity":0.0001312,"inclination_deg":43.0025,"raan_deg":268.6012,"arg_perigee_deg":253.4821,"mean_anomaly_deg":106.5887,"bstar":4.6418e-6,"rev_number":20163,"period_min":94.267088489368,"perigee_km":482.16539325505,"apogee_km":483.96577281284,"semimajor_km":6861.2025830339,"source":"CELESTRAK","updated_at":"2026-09-21T09:00:33.178786Z"}}